Regional Weather Roundup
Issued by NWS Little Rock, AR

Home | Current Version | Previous Version | Graphics & Text | Print | Product List | Glossary On
Versions: 1 2 3 4 5 6 7 8 9 10 11 12 13 14 15 16 17 18 19 20 21 22 23 24 25 26 27 28 29 30 31 32 33 34 35 36 37 38 39 40 41 42 43 44 45 46 47
000
ASUS44 KLZK 200805
RWRLZK

WEATHER ROUNDUP FOR ARKANSAS
NATIONAL WEATHER SERVICE LITTLE ROCK AR
300 AM CDT SAT SEP 20 2014

NOTE: "FAIR" INDICATES FEW OR NO CLOUDS BELOW 12,000 FEET WITH NO
SIGNIFICANT WEATHER AND/OR OBSTRUCTIONS TO VISIBILITY.

ARZ001-003-010-029-200900-
NORTHWEST ARKANSAS

CITY           SKY/WX    TMP DP  RH WIND       PRES   REMARKS
FAYETTEVILLE   CLEAR     63  63 100 CALM      30.03R FOG
FORT SMITH     CLEAR     70  67  90 NE5       29.99R
HARRISON       CLEAR     65  65 100 CALM      30.03F FOG
BENTONVILLE    CLEAR     66  63  88 CALM      30.02F
ROGERS         CLEAR     66  64  93 SE5       30.03F
SILOAM SPGS    CLEAR     66  61  82 SE5       30.02F
HIGHFILL       CLEAR     64  63  96 CALM      30.02S
$$

ARZ004-005-016-200900-
NORTH CENTRAL ARKANSAS

CITY           SKY/WX    TMP DP  RH WIND       PRES   REMARKS
BATESVILLE     CLEAR     64  63  94 CALM      30.01S
FLIPPIN        CLEAR     63  57  82 CALM      30.02S
MTN HOME       CLEAR     65  64  97 CALM      30.01F FOG
$$

ARZ040-041-200900-
WEST CENTRAL ARKANSAS

CITY           SKY/WX    TMP DP  RH WIND       PRES   REMARKS
MENA           CLOUDY    68  68 100 CALM      30.03S
MOUNT IDA      FOG       66  65  96 CALM      29.99S VSB 3/4
$$

ARZ009-017-025-026-028-200900-
NORTHEAST ARKANSAS

CITY           SKY/WX    TMP DP  RH WIND       PRES   REMARKS
CORNING          N/A     63  63 100 CALM      30.01S FOG
JONESBORO      CLEAR     64  64 100 CALM      30.01S
NEWPORT        CLEAR     65  64  96 E7        30.02S
WALNUT RIDGE   CLEAR     64  63  94 CALM      30.00S
BLYTHEVILLE    CLEAR     68  66  93 SE3       30.02S
$$

ARZ022-023-033-042-044-200900-
CENTRAL ARKANSAS

CITY           SKY/WX    TMP DP  RH WIND       PRES   REMARKS
LITTLE ROCK    CLEAR     70  66  87 CALM      30.00F
N LITTLE ROCK    N/A     71  68  90 SE3       30.00F
JACKSONVILLE   CLEAR     65  64  97 CALM      30.00F
SEARCY         CLEAR     65  65 100 CALM      30.01F FOG
HOT SPRINGS    CLEAR     68  66  93 CALM      30.00S
RUSSELLVILLE   CLEAR     67  65  93 CALM      30.00S FOG
CLINTON        FOG       64  64 100 CALM      30.02F VSB 3/4
$$

ARZ036-200900-
EAST ARKANSAS

CITY           SKY/WX    TMP DP  RH WIND       PRES   REMARKS
WEST MEMPHIS   CLEAR     68  68 100 S3        30.00S
$$

ARZ050-053-066-070-073-200900-
SOUTHWEST ARKANSAS

CITY           SKY/WX    TMP DP  RH WIND       PRES   REMARKS
ARKADELPHIA    FOG       69  69 100 CALM      29.99F VSB 1/2
CAMDEN         FOG       66  64  94 CALM      29.98S VSB 1
TEXARKANA      FOG       69  69 100 CALM      29.99S VSB 1
EL DORADO      CLEAR     69  68  96 CALM      29.98S FOG
DE QUEEN       FOG       68  67  96 CALM      29.97S VSB 1/2
$$

ARZ056-057-069-200900-
SOUTHEAST ARKANSAS

CITY           SKY/WX    TMP DP  RH WIND       PRES   REMARKS
PINE BLUFF     CLEAR     67  66  97 CALM      29.99F
STUTTGART      CLEAR     68  64  88 CALM      30.01S
MONTICELLO     CLEAR     69  67  93 CALM      29.98F

$$




USA.gov is the U.S. government's official web portal to all federal, state and local government web resources and services.